Home   Weather   Aarhus   Past weeks

Flag for Denmark Past Weather in Aarhus, Denmark — Yesterday and Last 2 Weeks

Now
41 °F

Light rain. Partly sunny.


Feels Like: 37 °F
Forecast: 35 / 44 °F
Wind: 6 mph from South

Location: Tirstrup

Current Time: Apr 24, 2017 at 7:44:24 am

Latest Report: Apr 24, 2017 at 6:50 am


Visibility: N/A

Pressure: 29.71 "Hg

Humidity: 87%

Dew Point: 37 °F

Location of AarhusLocation

Past Weather in Aarhus — Graph

°F

Aarhus Temperature Yesterday

Maximum temperature yesterday: 48 °F (at 1:20 pm)
Minimum temperature yesterday: 37 °F (at 4:20 am)
Average temperature yesterday: 43 °F

High & Low Weather Summary for the Past Weeks

 TemperatureHumidityPressure
High63 °F (Apr 9, 3:50 pm)100% (Apr 12, 12:50 am)30.63 "Hg (Apr 12, 12:50 am)
Low28 °F (Apr 19, 12:20 am)30% (Apr 22, 5:50 pm)29.53 "Hg (Apr 13, 2:20 am)
Average44 °F70%29.98 "Hg
* Reported Apr 9 6:20 am — Apr 24 6:20 am, Aarhus, Weather by CustomWeather, © 2017

Note: Actual official high and low records may vary slightly from our data, if they occured in-between our weather recording intervals... More about our weather records

Advertising

Aarhus Weather History for the Previous 24 Hours

Scroll right to see more
 ConditionsComfort  
Time TempWeatherWind HumidityBarometerVisibility
6:20 am
Mon, Apr 24
41 °FSprinkles. More clouds than sun.6 mph81%29.74 "HgN/A
5:50 am41 °FSprinkles. Partly sunny.8 mph81%29.77 "HgN/A
5:20 am41 °FPassing clouds.7 mph81%29.80 "HgN/A
4:50 am41 °FPassing clouds.10 mph81%29.83 "HgN/A
4:20 am41 °FPartly cloudy.13 mph87%29.86 "HgN/A
3:50 am41 °FDrizzle. Low clouds.10 mph93%29.86 "HgN/A
3:20 am41 °FPassing clouds.6 mph93%29.89 "HgN/A
2:50 am41 °FDrizzle. Overcast.7 mph87%29.89 "HgN/A
2:20 am41 °FLight rain. Low clouds.9 mph87%29.92 "HgN/A
1:50 am41 °FSprinkles. Passing clouds.9 mph87%29.92 "HgN/A
1:20 am41 °FSprinkles. Partly cloudy.7 mph81%29.95 "HgN/A
12:50 am41 °FLight rain. Passing clouds.8 mph76%29.95 "HgN/A
12:20 am41 °FPassing clouds.5 mph70%29.98 "HgN/A
11:50 pm
Sun, Apr 23
41 °FPassing clouds.6 mph66%29.98 "HgN/A
11:20 pm39 °FPassing clouds.6 mph70%29.98 "HgN/A
10:50 pm37 °FPassing clouds.7 mph70%30.01 "HgN/A
10:20 pm39 °FChilly.8 mph65%30.01 "HgN/A
9:50 pm41 °FPassing clouds.10 mph61%30.01 "HgN/A
9:20 pm41 °FPassing clouds.9 mph61%30.01 "HgN/A
8:50 pm41 °FQuite cool.10 mph61%30.01 "HgN/A
8:20 pm43 °FPassing clouds.16 mph53%30.01 "HgN/A
7:50 pm43 °FPassing clouds.15 mph53%30.01 "HgN/A
7:20 pm45 °FPassing clouds.18 mph46%30.01 "HgN/A
6:50 pm46 °FScattered clouds.20 mph40%29.98 "HgN/A
6:20 pm46 °FPassing clouds.18 mph40%29.98 "HgN/A
5:50 pm48 °FPassing clouds.17 mph34%29.98 "HgN/A
5:20 pm46 °FPartly sunny.18 mph37%29.98 "HgN/A
4:50 pm48 °FPartly sunny.17 mph32%29.98 "HgN/A
4:20 pm48 °FPartly sunny.21 mph37%29.98 "HgN/A
3:50 pm46 °FScattered clouds.18 mph34%29.98 "HgN/A
3:20 pm48 °FCool.21 mph37%29.98 "HgN/A
2:50 pm48 °FPassing clouds.22 mph34%29.98 "HgN/A
2:20 pm46 °FScattered clouds.20 mph40%29.98 "HgN/A
1:50 pm48 °FScattered clouds.18 mph34%29.98 "HgN/A
1:20 pm48 °FPassing clouds.17 mph37%29.98 "HgN/A
12:50 pm46 °FScattered clouds.17 mph43%29.98 "HgN/A
12:20 pm46 °FScattered clouds.20 mph40%29.98 "HgN/A
11:50 am46 °FPartly sunny.20 mph43%29.98 "HgN/A
11:20 am46 °FPartly sunny.18 mph43%29.98 "HgN/A
10:50 am45 °FPartly sunny.21 mph46%29.98 "HgN/A
10:20 am45 °FPartly sunny.18 mph49%29.98 "HgN/A
9:50 am43 °FPartly sunny.20 mph57%29.98 "HgN/A
9:20 am43 °FPartly sunny.21 mph61%29.98 "HgN/A
8:50 am43 °FPartly sunny.15 mph66%29.95 "HgN/A
8:20 am43 °FPassing clouds.15 mph71%29.95 "HgN/A
7:50 am41 °FPassing clouds.14 mph76%29.95 "HgN/A
7:20 am39 °FPassing clouds.10 mph81%29.95 "HgN/A
Weather by CustomWeather, © 2017

See weather overviewHow to use our weather pages